This is the latest recevied weather packets stored in our database for station/object F4IDZ-11. If no packets are shown the sender has not sent any weather packets the latest 10 day(s).
| Time | Temp. | Humidity | Pressure | Rain* | Wind** | Luminosity | Snow |
|---|---|---|---|---|---|---|---|
| 1778073451 | 18.33° C | 55% | 991.4 hPa | - | - | - | - |
| 1778072552 | 17.78° C | 56% | 991.5 hPa | - | - | - | - |
| 1778072551 | 17.78° C | 56% | 991.5 hPa | - | - | - | - |
| 1778071651 | 17.22° C | 56% | 991.4 hPa | - | - | - | - |
| 1778070751 | 17.22° C | 56% | 991.4 hPa | - | - | - | - |
| 1778069850 | 17.22° C | 56% | 991.2 hPa | - | - | - | - |
| 1778068950 | 17.22° C | 56% | 991.2 hPa | - | - | - | - |
| 1778068050 | 16.67° C | 56% | 991.3 hPa | - | - | - | - |
| 1778067150 | 16.67° C | 56% | 991.3 hPa | - | - | - | - |
| 1778066250 | 16.11° C | 57% | 991.1 hPa | - | - | - | - |
| 1778065350 | 15.56° C | 57% | 991 hPa | - | - | - | - |
| 1778064449 | 15.56° C | 58% | 991.1 hPa | - | - | - | - |
| 1778063549 | 15° C | 57% | 991 hPa | - | - | - | - |
| 1778062649 | 14.44° C | 58% | 991.2 hPa | - | - | - | - |
| 1778061749 | 14.44° C | 58% | 991.1 hPa | - | - | - | - |
| 1778060849 | 13.89° C | 58% | 990.9 hPa | - | - | - | - |
| 1778059949 | 13.89° C | 58% | 990.9 hPa | - | - | - | - |
| 1778059048 | 13.33° C | 59% | 990.8 hPa | - | - | - | - |
| 1778058148 | 13.33° C | 59% | 990.6 hPa | - | - | - | - |
| 1778057248 | 13.33° C | 59% | 990.6 hPa | - | - | - | - |
| 1778056348 | 12.78° C | 59% | 990.4 hPa | - | - | - | - |
| 1778055448 | 12.78° C | 59% | 990.3 hPa | - | - | - | - |
| 1778054548 | 12.78° C | 59% | 990.3 hPa | - | - | - | - |
| 1778053647 | 12.22° C | 59% | 990.1 hPa | - | - | - | - |
| 1778052747 | 12.22° C | 59% | 990.2 hPa | - | - | - | - |
* Rain since midnight (hover to see other rain measurements)
** Current wind speed in m/s (hover to see current wind gust speed)